CW3643 Weather Reports


time (UTC)temp
C
wind
direction
speed
KPH
gust
KPH
rain 1hr
cm
rain 24hr
cm
rain mn
cm
humidity
%
barometer
mb
20260904032514 26 0.0 0.0 0.00 0.00 0.00 57 1017.9
20260904032022 26 0.0 0.0 0.00 0.00 0.00 58 1018.1
20260904031529 26 0.0 526.3 0.00 0.00 0.00 58 1017.9
20260904031033 26 0.0 0.0 0.00 0.00 0.00 59 1018.3
20260904030604 26 0.0 0.0 0.00 0.00 0.00 59 1018.4
20260904030033 26 0.0 0.0 0.00 0.00 0.00 59 1018.7
20260904025514 26 0.0 0.0 0.00 0.00 0.00 59 1018.7
20260904025016 26 0.0 0.0 0.00 0.00 0.00 59 1018.5
20260904024524 27 0.0 0.0 0.00 0.00 0.00 59 1018.7
20260904024011 27 0.0 0.0 0.00 0.00 0.00 58 1019.0
20260904023535 27 0.0 0.0 0.00 0.00 0.00 57 1018.7
20260904023016 27 0.0 0.0 0.00 0.00 0.00 56 1018.8
20260904022517 27 0.0 0.0 0.00 0.00 0.00 55 1019.0
20260904022025 27 0.0 0.0 0.00 0.00 0.00 54 1018.9
20260904021028 27 0.0 0.0 0.00 0.00 0.00 51 1018.8
20260904020537 28 0.0 0.0 0.00 0.00 0.00 51 1019.2
20260904020018 27 0.0 0.0 0.00 0.00 0.00 52 1019.0
20260904015519 27 0.0 0.0 0.00 0.00 0.00 52 1019.3
20260904015027 27 0.0 0.0 0.00 0.00 0.00 53 1019.6
20260904014535 27 0.0 0.0 0.00 0.00 0.00 53 1019.8
20260904013530 26 0.0 0.0 0.00 0.00 0.00 53 1019.3
20260904013032 27 0.0 0.0 0.00 0.00 0.00 54 1019.0
20260904012513 27 0.0 0.0 0.00 0.00 0.00 53 1018.4
20260904012021 27 0.0 0.0 0.00 0.00 0.00 50 1018.5
20260904011529 27 0.0 0.0 0.00 0.00 0.00 49 1018.5
20260904010034 27 0.0 0.0 0.00 0.00 0.00 47 1018.4
20260904005514 27 0.0 0.0 0.00 0.00 0.00 46 1018.4
20260904005022 27 0.0 0.0 0.00 0.00 0.00 46 1018.4
20260904004530 28 0.0 0.0 0.00 0.00 0.00 46 1018.4
20260904004037 28 0.0 0.0 0.00 0.00 0.00 46 1018.3
20260904003518 28 0.0 0.0 0.00 0.00 0.00 46 1018.3
20260904003024 28 0.0 0.0 0.00 0.00 0.00 45 1018.3
20260904002520 28 0.0 0.0 0.00 0.00 0.00 47 1018.5
20260904002028 28 0.0 0.0 0.00 0.00 0.00 48 1018.5
20260904001533 28 0.0 0.0 0.00 0.00 0.00 49 1018.6
20260904001012 28 0.0 0.0 0.00 0.00 0.00 50 1018.7
20260904000521 28 0.0 0.0 0.00 0.00 0.00 50 1018.6
20260904000028 28 0.0 0.0 0.00 0.00 0.00 49 1018.7
20260903235528 28 0.0 0.0 0.00 0.00 0.00 47 1018.8
20260903235035 28 0.0 0.0 0.00 0.00 0.00 45 1018.8
20260903234516 28 0.0 0.0 0.00 0.00 0.00 45 1018.8
20260903234043 28 0.0 0.0 0.00 0.00 0.00 44 1018.8
20260903233511 28 0.0 0.0 0.00 0.00 0.00 45 1018.7
20260903233011 28 0.0 0.0 0.00 0.00 0.00 46 1018.7
20260903232519 28 0.0 0.0 0.00 0.00 0.00 47 1018.7
20260903232014 28 0.0 0.0 0.00 0.00 0.00 47 1018.6
20260903231522 28 0.0 0.0 0.00 0.00 0.00 47 1018.5
20260903231029 28 0.0 0.0 0.00 0.00 0.00 47 1018.4
20260903230538 28 0.0 0.0 0.00 0.00 0.00 47 1018.3
20260903230019 28 0.0 0.0 0.00 0.00 0.00 47 1018.2
20260903225520 28 0.0 0.0 0.00 0.00 0.00 47 1018.1
20260903225028 28 0.0 0.0 0.00 0.00 0.00 47 1018.2
20260903224641 29 0.0 0.0 0.00 0.00 0.00 47 1018.3
20260903224030 29 0.0 0.0 0.00 0.00 0.00 45 1018.5
20260903223526 30 0.0 0.0 0.00 0.00 0.00 44 1018.8
20260903223022 30 0.0 0.0 0.00 0.00 0.00 43 1018.8
20260903222523 30 0.0 0.0 0.00 0.00 0.00 44 1018.9
20260903222031 30 0.0 0.0 0.00 0.00 0.00 44 1018.9
20260903221512 30 0.0 0.0 0.00 0.00 0.00 44 1019.0
20260903221034 30 0.0 0.0 0.00 0.00 0.00 45 1019.0
20260903220550 30 0.0 0.0 0.00 0.00 0.00 46 1019.1
20260903220031 30 0.0 0.0 0.00 0.00 0.00 47 1019.1
20260903215512 30 0.0 0.0 0.00 0.00 0.00 47 1019.1
20260903215019 30 0.0 0.0 0.00 0.00 0.00 47 1019.1
20260903214527 31 0.0 0.0 0.00 0.00 0.00 47 1019.1
20260903214029 31 0.0 0.0 0.00 0.00 0.00 47 1019.1
20260903213536 31 0.0 0.0 0.00 0.00 0.00 46 1019.0
20260903213023 31 0.0 0.0 0.00 0.00 0.00 45 1019.2
20260903212524 31 0.0 0.0 0.00 0.00 0.00 44 1019.2
20260903212047 31 0.0 0.0 0.00 0.00 0.00 43 1019.1
20260903211021 31 0.0 0.0 0.00 0.00 0.00 44 1018.9
20260903210529 31 0.0 0.0 0.00 0.00 0.00 44 1018.8
20260903210036 31 0.0 0.0 0.00 0.00 0.00 44 1018.7
20260903205623 31 0.0 0.0 0.00 0.00 0.00 44 1018.6
20260903205018 31 0.0 0.0 0.00 0.00 0.00 44 1018.6
20260903204526 31 0.0 0.0 0.00 0.00 0.00 44 1018.5
20260903204013 31 0.0 0.0 0.00 0.00 0.00 43 1018.4
20260903203521 32 0.0 0.0 0.00 0.00 0.00 44 1018.3
20260903203020 32 0.0 0.0 0.00 0.00 0.00 43 1018.3
20260903202517 32 0.0 0.0 0.00 0.00 0.00 43 1018.2
20260903202025 32 0.0 0.0 0.00 0.00 0.00 43 1018.1
20260903201533 32 0.0 0.0 0.00 0.00 0.00 43 1018.0
20260903201018 32 0.0 0.0 0.00 0.00 0.00 43 1017.8
20260903200529 32 0.0 0.0 0.00 0.00 0.00 43 1017.7
20260903200030 33 0.0 0.0 0.00 0.00 0.00 43 1017.6
20260903195538 33 0.0 0.0 0.00 0.00 0.00 43 1017.4
20260903195107 33 0.0 0.0 0.00 0.00 0.00 42 1017.4
20260903194029 33 0.0 0.0 0.00 0.00 0.00 41 1017.4
20260903193514 33 0.0 0.0 0.00 0.00 0.00 41 1017.3
20260903193028 33 0.0 0.0 0.00 0.00 0.00 41 1017.2
20260903192516 34 0.0 0.0 0.00 0.00 0.00 40 1017.1
20260903192044 34 0.0 0.0 0.00 0.00 0.00 39 1017.1
20260903191524 35 0.0 0.0 0.00 0.00 0.00 39 1017.0
20260903191010 35 0.0 0.0 0.00 0.00 0.00 38 1017.0
20260903190520 35 0.0 0.0 0.00 0.00 0.00 38 1016.9
20260903190028 35 0.0 0.0 0.00 0.00 0.00 37 1017.0
20260903185535 35 0.0 0.0 0.00 0.00 0.00 37 1016.9
20260903185017 36 0.0 0.0 0.00 0.00 0.00 35 1016.8
20260903184513 36 0.0 0.0 0.00 0.00 0.00 33 1016.8
20260903184038 37 0.0 0.0 0.00 0.00 0.00 30 1016.8
20260903183518 37 0.0 0.0 0.00 0.00 0.00 28 1016.8
20260903183012 38 0.0 0.0 0.00 0.00 0.00 25 1016.8
20260903182514 38 0.0 0.0 0.00 0.00 0.00 24 1016.8
20260903182016 38 0.0 0.0 0.00 0.00 0.00 25 1016.8
20260903181517 38 0.0 0.0 0.00 0.00 0.00 25 1017.0
20260903181025 38 0.0 0.0 0.00 0.00 0.00 24 1017.0
20260903180514 38 0.0 0.0 0.00 0.00 0.00 24 1017.0
20260903180023 38 0.0 0.0 0.00 0.00 0.00 24 1017.1
20260903175543 38 0.0 0.0 0.00 0.00 0.00 24 1017.1
20260903175030 38 0.0 0.0 0.00 0.00 0.00 24 1017.1
20260903174537 38 0.0 0.0 0.00 0.00 0.00 24 1017.2
20260903174018 38 0.0 0.0 0.00 0.00 0.00 24 1017.3
20260903173526 39 0.0 0.0 0.00 0.00 0.00 24 1017.2
20260903173026 39 0.0 0.0 0.00 0.00 0.00 23 1017.2
20260903172520 39 0.0 0.0 0.00 0.00 0.00 23 1017.2
20260903172025 39 0.0 0.0 0.00 0.00 0.00 23 1017.2
20260903171525 39 0.0 0.0 0.00 0.00 0.00 23 1017.3
20260903171012 39 0.0 0.0 0.00 0.00 0.00 23 1017.4
20260903170520 39 0.0 0.0 0.00 0.00 0.00 22 1017.3
20260903170021 39 0.0 0.0 0.00 0.00 0.00 22 1017.3
20260903164518 40 0.0 0.0 0.00 0.00 0.00 22 1017.5
20260903164026 39 0.0 0.0 0.00 0.00 0.00 22 1017.5
20260903163526 39 0.0 0.0 0.00 0.00 0.00 23 1017.5
20260903163014 39 0.0 0.0 0.00 0.00 0.00 23 1017.4
20260903162602 38 0.0 0.0 0.00 0.00 0.00 23 1017.4
20260903162129 38 0.0 0.0 0.00 0.00 0.00 23 1017.4
20260903161523 38 0.0 0.0 0.00 0.00 0.00 23 1017.4
20260903161030 38 0.0 0.0 0.00 0.00 0.00 23 1017.4
20260903160519 38 0.0 0.0 0.00 0.00 0.00 22 1017.5
20260903160025 38 0.0 0.0 0.00 0.00 0.00 22 1017.5
20260903155526 38 0.0 0.0 0.00 0.00 0.00 22 1017.6
20260903154514 38 0.0 0.0 0.00 0.00 0.00 22 1017.6
20260903154022 38 0.0 0.0 0.00 0.00 0.00 22 1017.6
20260903153530 38 0.0 0.0 0.00 0.00 0.00 24 1017.6
20260903153031 38 0.0 0.0 0.00 0.00 0.00 25 1017.6
20260903152512 38 0.0 0.0 0.00 0.00 0.00 25 1017.6
20260903152016 38 0.0 0.0 0.00 0.00 0.00 26 1017.7
20260903151524 37 0.0 0.0 0.00 0.00 0.00 26 1017.8
20260903151023 37 0.0 0.0 0.00 0.00 0.00 26 1018.0
20260903150513 37 0.0 0.0 0.00 0.00 0.00 26 1018.1
20260903150019 37 0.0 0.0 0.00 0.00 0.00 29 1018.2
20260903145015 37 0.0 0.0 0.00 0.00 0.00 30 1018.3
20260903144543 37 0.0 0.0 0.00 0.00 0.00 30 1018.3
20260903144030 37 0.0 0.0 0.00 0.00 0.00 31 1018.3
20260903143538 37 0.0 0.0 0.00 0.00 0.00 31 1018.4
20260903143018 36 0.0 0.0 0.00 0.00 0.00 31 1018.4
20260903142539 36 0.0 0.0 0.00 0.00 0.00 31 1018.5
20260903142026 36 0.0 0.0 0.00 0.00 0.00 30 1018.5
20260903141534 36 0.0 0.0 0.00 0.00 0.00 29 1018.6
20260903141014 36 0.0 0.0 0.00 0.00 0.00 29 1018.6
20260903140523 36 0.0 0.0 0.00 0.00 0.00 30 1018.7
20260903140031 36 0.0 0.0 0.00 0.00 0.00 31 1018.7
20260903135512 36 0.0 0.0 0.00 0.00 0.00 30 1018.7
20260903135036 36 0.0 0.0 0.00 0.00 0.00 30 1018.8
20260903134517 36 0.0 0.0 0.00 0.00 0.00 28 1018.8
20260903134045 35 0.0 0.0 0.00 0.00 0.00 27 1018.9
20260903133526 35 0.0 0.0 0.00 0.00 0.00 28 1018.9
20260903132539 35 0.0 0.0 0.00 0.00 0.00 30 1019.0
20260903132025 34 0.0 0.0 0.00 0.00 0.00 32 1019.1
20260903131511 34 0.0 0.0 0.00 0.00 0.00 35 1019.1
20260903131011 34 0.0 0.0 0.00 0.00 0.00 36 1019.2
20260903130521 34 0.0 0.0 0.00 0.00 0.00 39 1019.2
20260903125536 33 0.0 0.0 0.00 0.00 0.00 41 1019.3
20260903125017 33 0.0 0.0 0.00 0.00 0.00 41 1019.4
20260903124025 33 0.0 0.0 0.00 0.00 0.00 41 1019.4
20260903123529 32 0.0 0.0 0.00 0.00 0.00 40 1019.4
20260903123029 32 0.0 0.0 0.00 0.00 0.00 43 1019.4
20260903122535 32 0.0 0.0 0.00 0.00 0.00 43 1019.5
20260903122016 31 0.0 0.0 0.00 0.00 0.00 43 1019.5
20260903121524 31 0.0 0.0 0.00 0.00 0.00 44 1019.6
20260903121031 31 0.0 0.0 0.00 0.00 0.00 44 1019.6
20260903120539 31 0.0 0.0 0.00 0.00 0.00 46 1019.7
20260903120025 30 0.0 0.0 0.00 0.00 0.00 45 1019.7
20260903115523 30 0.0 0.0 0.00 0.00 0.00 45 1019.7
20260903115030 30 0.0 0.0 0.00 0.00 0.00 46 1019.8
20260903114054 30 0.0 0.0 0.00 0.00 0.00 48 1020.1
20260903113513 29 0.0 0.0 0.00 0.00 0.00 49 1020.1
20260903112537 29 0.0 0.0 0.00 0.00 0.00 51 1020.1
20260903111531 28 0.0 0.0 0.00 0.00 0.00 51 1020.2
20260903111011 28 0.0 0.0 0.00 0.00 0.00 52 1020.3
20260903110515 28 0.0 0.0 0.00 0.00 0.00 52 1020.4
20260903110043 27 0.0 0.0 0.00 0.00 0.00 51 1020.5
20260903105523 27 0.0 0.0 0.00 0.00 0.00 54 1020.5
20260903105031 27 0.0 526.3 0.00 0.00 0.00 54 1020.4
20260903104536 27 0.0 0.0 0.00 0.00 0.00 56 1020.5
20260903104017 27 0.0 0.0 0.00 0.00 0.00 58 1020.6
20260903103524 26 0.0 0.0 0.00 0.00 0.00 58 1020.5
20260903103031 26 0.0 0.0 0.00 0.00 0.00 59 1020.4
20260903102514 26 0.0 0.0 0.00 0.00 0.00 60 1020.5
20260903102019 26 0.0 0.0 0.00 0.00 0.00 62 1020.5
20260903101519 26 0.0 0.0 0.00 0.00 0.00 63 1020.6
20260903100514 25 0.0 0.0 0.00 0.00 0.00 65 1020.4
20260903100038 25 0.0 0.0 0.00 0.00 0.00 64 1020.3
20260903095525 25 0.0 0.0 0.00 0.00 0.00 65 1020.3
20260903095109 25 0.0 0.0 0.00 0.00 0.00 67 1020.3
20260903094531 24 0.0 0.0 0.00 0.00 0.00 67 1020.4
20260903094018 24 0.0 0.0 0.00 0.00 0.00 67 1020.4
20260903093530 23 0.0 0.0 0.00 0.00 0.00 69 1020.4
20260903093036 23 0.0 0.0 0.00 0.00 0.00 69 1020.3
20260903092531 23 0.0 526.3 0.00 0.00 0.00 70 1020.2
20260903092031 23 0.0 0.0 0.00 0.00 0.00 71 1020.3
20260903091538 23 0.0 0.0 0.00 0.00 0.00 72 1020.3
20260903090512 22 0.0 0.0 0.00 0.00 0.00 73 1020.1
20260903090018 22 0.0 0.0 0.00 0.00 0.00 74 1020.1
20260903085516 22 0.0 0.0 0.00 0.00 0.00 74 1019.9
20260903085030 22 0.0 0.0 0.00 0.00 0.00 73 1019.9
20260903084536 22 0.0 0.0 0.00 0.00 0.00 73 1019.9
20260903084015 22 0.0 0.0 0.00 0.00 0.00 73 1019.9
20260903083538 22 0.0 0.0 0.00 0.00 0.00 74 1019.9
20260903083053 21 0.0 0.0 0.00 0.00 0.00 73 1019.9
20260903082551 21 0.0 0.0 0.00 0.00 0.00 74 1019.9
20260903082016 21 0.0 0.0 0.00 0.00 0.00 74 1019.9
20260903081521 21 0.0 0.0 0.00 0.00 0.00 75 1019.9
20260903081027 21 0.0 0.0 0.00 0.00 0.00 75 1019.9
20260903080638 21 0.0 0.0 0.00 0.00 0.00 77 1019.9
20260903080013 21 0.0 0.0 0.00 0.00 0.00 78 1019.9
20260903075512 21 0.0 0.0 0.00 0.00 0.00 79 1019.9
20260903075021 21 0.0 0.0 0.00 0.00 0.00 79 1019.8
20260903074527 21 0.0 0.0 0.00 0.00 0.00 79 1019.9
20260903074026 21 0.0 0.0 0.00 0.00 0.00 79 1019.9
20260903073513 21 0.0 0.0 0.00 0.00 0.00 78 1019.8
20260903073022 21 0.0 0.0 0.00 0.00 0.00 77 1019.8
20260903072536 21 0.0 0.0 0.00 0.00 0.00 77 1019.7
20260903072038 20 0.0 0.0 0.00 0.00 0.00 76 1019.6
20260903071518 20 0.0 0.0 0.00 0.00 0.00 76 1019.6
20260903071032 20 0.0 0.0 0.00 0.00 0.00 76 1019.6
20260903070519 20 0.0 0.0 0.00 0.00 0.00 77 1019.6
20260903070027 20 0.0 0.0 0.00 0.00 0.00 78 1019.6
20260903065527 20 0.0 0.0 0.00 0.00 0.00 79 1019.6
20260903064515 20 0.0 0.0 0.00 0.00 0.00 79 1019.6
20260903064022 20 0.0 0.0 0.00 0.00 0.00 79 1019.5
20260903063528 20 0.0 0.0 0.00 0.00 0.00 79 1019.4
20260903063035 20 0.0 0.0 0.00 0.00 0.00 79 1019.4
20260903062525 20 0.0 0.0 0.00 0.00 0.00 79 1019.5
20260903062012 20 0.0 0.0 0.00 0.00 0.00 78 1019.4
20260903061535 20 0.0 0.0 0.00 0.00 0.00 78 1019.4
20260903061015 20 0.0 0.0 0.00 0.00 0.00 77 1019.3
20260903060522 20 0.0 0.0 0.00 0.00 0.00 77 1019.3
20260903060029 20 0.0 0.0 0.00 0.00 0.00 75 1019.2
20260903055528 20 0.0 0.0 0.00 0.00 0.00 73 1019.2
20260903054530 20 0.0 0.0 0.00 0.00 0.00 74 1019.1
20260903054015 20 0.0 0.0 0.00 0.00 0.00 75 1019.1
20260903053522 20 0.0 0.0 0.00 0.00 0.00 77 1019.0
20260903052517 20 0.0 0.0 0.00 0.00 0.00 77 1019.0
20260903052023 20 0.0 0.0 0.00 0.00 0.00 77 1019.0
20260903051523 20 0.0 0.0 0.00 0.00 0.00 77 1019.0
20260903051030 20 0.0 0.0 0.00 0.00 0.00 77 1019.0
20260903050517 20 0.0 0.0 0.00 0.00 0.00 77 1019.0
20260903045514 20 0.0 0.0 0.00 0.00 0.00 77 1019.0
20260903045020 20 0.0 0.0 0.00 0.00 0.00 76 1018.9
20260903044520 20 0.0 0.0 0.00 0.00 0.00 76 1018.8
20260903044027 20 0.0 0.0 0.00 0.00 0.00 76 1018.7
20260903043515 20 0.0 0.0 0.00 0.00 0.00 77 1018.6
20260903043022 20 0.0 0.0 0.00 0.00 0.00 78 1018.6
20260903042523 20 0.0 0.0 0.00 0.00 0.00 79 1018.7
20260903042022 20 0.0 0.0 0.00 0.00 0.00 78 1018.6
20260903041513 20 0.0 0.0 0.00 0.00 0.00 78 1018.6
20260903041020 21 0.0 0.0 0.00 0.00 0.00 78 1018.7
20260903040528 21 0.0 0.0 0.00 0.00 0.00 77 1018.7
20260903040026 21 0.0 0.0 0.00 0.00 0.00 76 1018.7
20260903035527 21 0.0 0.0 0.00 0.00 0.00 74 1018.8
20260903035033 21 0.0 0.0 0.00 0.00 0.00 74 1018.9
20260903034028 20 0.0 0.0 0.00 0.00 0.00 71 1018.9
20260903033537 21 0.0 0.0 0.00 0.00 0.00 71 1018.9
20260903033016 21 0.0 0.0 0.00 0.00 0.00 71 1018.9